GW0643 Weather Reports


time (UTC)temp
C
wind
direction
speed
KPH
gust
KPH
rain 1hr
cm
rain 24hr
cm
rain mn
cm
humidity
%
barometer
mb
20260504045805 15 0 0.0 1.6 0.00 0.00 0.00 66 1019.3
20260504045305 15 0 0.0 0.0 0.00 0.00 0.00 66 1019.3
20260504044806 15 0 0.0 3.2 0.00 0.00 0.00 66 1019.3
20260504044305 15 0 0.0 3.2 0.00 0.00 0.00 66 1019.3
20260504043806 15 0 0.0 3.2 0.00 0.00 0.00 66 1019.3
20260504042805 15 202 1.6 3.2 0.00 0.00 0.00 66 1019.3
20260504042306 15 202 1.6 3.2 0.00 0.00 0.00 66 1019.3
20260504041805 16 202 1.6 4.8 0.00 0.00 0.00 66 1019.4
20260504040305 15 202 1.6 4.8 0.00 0.00 0.00 66 1019.3
20260504035805 16 202 1.6 3.2 0.00 0.00 0.00 64 1019.3
20260504035305 16 0 0.0 3.2 0.00 0.00 0.00 64 1019.3
20260504034805 16 0 0.0 3.2 0.00 0.00 0.00 64 1019.3
20260504034306 16 0 0.0 3.2 0.00 0.00 0.00 64 1019.3
20260504033806 16 0 0.0 3.2 0.00 0.00 0.00 64 1019.3
20260504033305 16 0 0.0 3.2 0.00 0.00 0.00 64 1019.3
20260504032805 16 0 0.0 1.6 0.00 0.00 0.00 64 1019.3
20260504032305 16 202 1.6 4.8 0.00 0.00 0.00 64 1019.3
20260504031805 16 0 0.0 4.8 0.00 0.00 0.00 64 1019.3
20260504031305 16 0 0.0 4.8 0.00 0.00 0.00 64 1019.3
20260504030305 16 207 1.6 4.8 0.00 0.00 0.00 64 1019.3
20260504025805 18 202 3.2 3.2 0.00 0.00 0.00 61 1019.1
20260504025306 18 205 1.6 4.8 0.00 0.00 0.00 64 1019.2
20260504024805 17 0 1.6 4.8 0.00 0.00 0.00 58 1019.0
20260504023805 17 0 0.0 4.8 0.00 0.00 0.00 58 1019.0
20260504023305 17 0 0.0 4.8 0.00 0.00 0.00 58 1019.0
20260504022805 17 198 1.6 4.8 0.00 0.00 0.00 58 1019.0
20260504022305 17 198 1.6 3.2 0.00 0.00 0.00 58 1019.0
20260504021805 17 0 0.0 3.2 0.00 0.00 0.00 58 1019.0
20260504021305 17 198 1.6 3.2 0.00 0.00 0.00 58 1019.0
20260504020805 17 198 1.6 4.8 0.00 0.00 0.00 58 1019.0
20260504020305 17 0 0.0 4.8 0.00 0.00 0.00 58 1019.0
20260504015805 17 0 0.0 8.0 0.00 0.00 0.00 57 1018.3
20260504014804 17 0 0.0 8.0 0.00 0.00 0.00 57 1018.3
20260504014305 18 196 3.2 12.9 0.00 0.00 0.00 58 1018.4
20260504013805 18 192 1.6 12.9 0.00 0.00 0.00 59 1018.5
20260504013305 17 191 1.6 12.9 0.00 0.00 0.00 57 1018.3
20260504012305 17 211 1.6 4.8 0.00 0.00 0.00 57 1018.3
20260504011806 17 0 0.0 8.0 0.00 0.00 0.00 57 1018.3
20260504011304 17 0 0.0 8.0 0.00 0.00 0.00 57 1018.3
20260504010805 17 0 0.0 8.0 0.00 0.00 0.00 57 1018.3
20260504010305 17 209 1.6 11.3 0.00 0.00 0.00 57 1018.3
20260504005806 21 192 1.6 11.3 0.00 0.00 0.00 37 1017.9
20260504004805 21 198 1.6 11.3 0.00 0.00 0.00 37 1017.9
20260504004305 21 217 3.2 8.0 0.00 0.00 0.00 37 1017.9
20260504003805 21 221 1.6 8.0 0.00 0.00 0.00 37 1017.9
20260504003305 21 201 1.6 4.8 0.00 0.00 0.00 37 1017.9
20260504002804 21 245 3.2 4.8 0.00 0.00 0.00 37 1018.0
20260504002305 21 289 1.6 4.8 0.00 0.00 0.00 37 1017.9
20260504001805 21 351 1.6 4.8 0.00 0.00 0.00 42 1017.9
20260504001304 21 213 3.2 8.0 0.00 0.00 0.00 37 1017.9
20260504000805 21 213 3.2 8.0 0.00 0.00 0.00 37 1017.9
20260504000304 21 0 0.0 11.3 0.00 0.00 0.00 53 1017.9
20260503235305 23 239 4.8 9.7 0.00 0.00 0.00 30 1018.3
20260503234805 23 209 3.2 8.0 0.00 0.00 0.00 35 1018.3
20260503233304 23 0 0.0 8.0 0.00 0.00 0.00 30 1018.3
20260503232306 23 57 1.6 8.0 0.00 0.00 0.00 30 1018.3
20260503231805 23 94 3.2 8.0 0.00 0.00 0.00 30 1018.3
20260503231305 23 0 1.6 8.0 0.00 0.00 0.00 30 1018.3
20260503230805 23 0 1.6 8.0 0.00 0.00 0.00 32 1018.2
20260503230305 23 8 4.8 8.0 0.00 0.00 0.00 30 1018.1
20260503225805 23 11 4.8 11.3 0.00 0.00 0.00 37 1018.0
20260503225305 23 12 3.2 11.3 0.00 0.00 0.00 31 1018.3
20260503224805 23 355 6.4 12.9 0.00 0.00 0.00 30 1018.3
20260503224305 23 332 9.7 12.9 0.00 0.00 0.00 30 1018.3
20260503223804 23 26 4.8 12.9 0.00 0.00 0.00 33 1018.3
20260503223306 23 329 3.2 8.0 0.00 0.00 0.00 30 1018.3
20260503222804 23 0 0.0 8.0 0.00 0.00 0.00 30 1018.3
20260503222305 23 344 1.6 8.0 0.00 0.00 0.00 30 1018.3
20260503221305 23 152 3.2 16.1 0.00 0.00 0.00 30 1018.3
20260503220804 23 252 3.2 19.3 0.00 0.00 0.00 30 1018.3
20260503220304 23 5 3.2 19.3 0.00 0.00 0.00 30 1018.3
20260503215804 24 0 3.2 19.3 0.00 0.00 0.00 28 1019.0
20260503215304 24 0 3.2 19.3 0.00 0.00 0.00 29 1018.9
20260503214805 25 348 1.6 14.5 0.00 0.00 0.00 32 1018.7
20260503214305 25 16 3.2 12.9 0.00 0.00 0.00 28 1018.2
20260503213804 24 102 3.2 12.9 0.00 0.00 0.00 28 1018.9
20260503212805 24 319 4.8 14.5 0.00 0.00 0.00 29 1018.9
20260503212305 24 11 4.8 14.5 0.00 0.00 0.00 28 1019.0
20260503211804 24 190 4.8 14.5 0.00 0.00 0.00 28 1019.0
20260503211304 24 36 1.6 14.5 0.00 0.00 0.00 28 1019.0
20260503210305 24 347 1.6 12.9 0.00 0.00 0.00 28 1019.0
20260503205805 23 52 3.2 12.9 0.00 0.00 0.00 29 1020.0
20260503205304 23 347 3.2 12.9 0.00 0.00 0.00 29 1020.0
20260503204805 23 355 4.8 12.9 0.00 0.00 0.00 29 1020.0
20260503204304 23 0 0.0 4.8 0.00 0.00 0.00 29 1020.0
20260503203805 23 277 1.6 4.8 0.00 0.00 0.00 29 1020.0
20260503203305 23 230 1.6 9.7 0.00 0.00 0.00 30 1019.8
20260503202305 25 351 4.8 9.7 0.00 0.00 0.00 29 1019.5
20260503201805 23 348 4.8 11.3 0.00 0.00 0.00 29 1019.9
20260503201304 23 0 1.6 11.3 0.00 0.00 0.00 30 1019.9
20260503200304 23 327 4.8 12.9 0.00 0.00 0.00 29 1020.0
20260503195804 24 355 1.6 14.5 0.00 0.00 0.00 28 1020.7
20260503195305 24 314 3.2 14.5 0.00 0.00 0.00 31 1020.7
20260503194305 24 355 4.8 14.5 0.00 0.00 0.00 28 1020.7
20260503193805 24 355 1.6 9.7 0.00 0.00 0.00 28 1020.7
20260503193305 24 314 3.2 8.0 0.00 0.00 0.00 28 1020.7
20260503192805 24 239 3.2 14.5 0.00 0.00 0.00 28 1020.7
20260503192305 24 325 4.8 14.5 0.00 0.00 0.00 28 1020.7
20260503191804 24 329 4.8 14.5 0.00 0.00 0.00 28 1020.7
20260503190805 24 59 4.8 8.0 0.00 0.00 0.00 32 1020.5
20260503190304 24 24 3.2 8.0 0.00 0.00 0.00 34 1020.4
20260503185804 25 38 3.2 11.3 0.00 0.00 0.00 28 1021.6
20260503185305 23 333 3.2 11.3 0.00 0.00 0.00 29 1021.6
20260503184804 23 331 6.4 11.3 0.00 0.00 0.00 29 1021.6
20260503183804 23 278 4.8 12.9 0.00 0.00 0.00 28 1021.7
20260503183305 23 10 3.2 12.9 0.00 0.00 0.00 28 1021.7
20260503182804 23 331 3.2 12.9 0.00 0.00 0.00 28 1021.7
20260503181305 23 255 1.6 12.9 0.00 0.00 0.00 28 1021.7
20260503180804 23 320 8.0 12.9 0.00 0.00 0.00 28 1021.7
20260503180305 23 355 1.6 14.5 0.00 0.00 0.00 28 1021.7
20260503175805 22 274 4.8 14.5 0.00 0.00 0.00 27 1022.4
20260503175305 22 327 4.8 14.5 0.00 0.00 0.00 27 1022.1
20260503174804 23 323 3.2 14.5 0.00 0.00 0.00 31 1021.8
20260503172805 22 337 8.0 14.5 0.00 0.00 0.00 39 1022.3
20260503171804 22 15 4.8 12.9 0.00 0.00 0.00 27 1022.4
20260503171305 22 61 4.8 9.7 0.00 0.00 0.00 27 1022.4
20260503170804 22 244 1.6 14.5 0.00 0.00 0.00 27 1022.4
20260503170304 22 47 3.2 19.3 0.00 0.00 0.00 27 1022.4
20260503150303 20 9 6.4 19.3 0.00 0.00 0.00 43 1022.5
20260503140305 18 92 1.6 8.0 0.00 0.00 0.00 46 1022.4
20260503131304 14 0 0.0 9.7 0.00 0.00 0.00 69 1021.7
20260503130304 14 346 1.6 12.9 0.00 0.00 0.00 69 1021.7
20260503110304 6 0 0.0 0.0 0.00 0.08 0.00 92 1021.0
20260503090305 8 0 0.0 0.0 0.00 0.43 0.00 89 1020.0
20260503081305 7 0 0.0 0.0 0.00 0.84 0.00 91 1019.6
20260503080805 7 0 0.0 0.0 0.00 0.89 0.00 89 1019.6
20260503080306 7 0 0.0 0.0 0.00 0.91 0.00 87 1019.4
20260503072806 8 0 0.0 0.0 0.00 1.60 0.00 89 1019.3
20260503072306 8 0 0.0 0.0 0.00 1.73 0.00 89 1019.3
20260503071805 8 0 0.0 0.0 0.00 1.78 0.00 89 1019.3
20260503071306 8 0 0.0 0.0 0.00 1.80 0.00 89 1019.3
20260503070805 8 0 0.0 0.0 0.00 1.80 0.00 89 1019.3
20260503060306 11 0 0.0 0.0 0.00 2.13 0.00 68 1019.3
20260503054806 12 0 0.0 1.6 0.00 2.59 0.00 64 1019.0
20260503054305 12 0 0.0 1.6 0.00 2.62 0.00 64 1019.0
20260503053806 12 0 0.0 0.0 0.00 2.62 0.00 64 1019.0
20260503053306 12 0 0.0 0.0 0.00 2.72 0.00 64 1019.0
20260503052306 12 0 0.0 1.6 0.00 3.00 0.00 64 1019.0